Massena, NY

7:06 AM EDT on March 28, 2017 (GMT -0400)
Massena International-Richards

Weather History for KMSS - December, 2012

Change the Weather History Date:

Thursday, December 13, 2012

  Actual Average Record
Temperature  
Mean Temperature 31 °F 23 °F  
Max Temperature 42 °F 31 °F 57 °F (1991)
Min Temperature 19 °F 15 °F -21 °F (2000)
Degree Days  
Heating Degree Days 34 42  
Month to date heating degree days 415 508  
Since 1 July heating degree days 2022 2277  
Cooling Degree Days 0 0  
Month to date cooling degree days 0  
Year to date cooling degree days 363  
Moisture  
Dew Point 23 °F    
Average Humidity 78    
Maximum Humidity 96    
Minimum Humidity 60    
Precipitation  
Precipitation 0.00 in 0.08 in 1.28 in (1996)
Month to date precipitation 1.46 1.12  
Year to date precipitation 27.94 33.65  
Sea Level Pressure  
Sea Level Pressure 30.39 in    
Wind  
Wind Speed 5 mph (SSW)    
Max Wind Speed 15 mph    
Max Gust Speed 20 mph    
Visibility 6 miles    
Events Fog    
T = Trace of Precipitation, MM = Missing Value Source: NWS Daily Summary

Daily Weather History Graph

Daily Weather History Graph

Search for Another Location

Airport or City:

Trip Planner

Search our weather history database for the weather conditions in past years. The results will help you decide how hot, cold, wet, or windy it might be!

Date:

Astronomy

Dec. 13, 2012 Rise Set
Actual Time 7:29 AM EST 4:18 PM EST
Civil Twilight 6:55 AM EST 4:51 PM EST
Nautical Twilight 6:18 AM EST 5:29 PM EST
Astronomical Twilight 5:42 AM EST 6:04 PM EST
Moon 7:34 AM EST (12/13) 4:59 PM EST (12/13)
Length of Visible Light 9h 56m
Length of Day
8h 48m
New Moon, 0% of the Moon is Illuminated
Dec 13
New Moon
Dec 20
First Quarter
Dec 28
Full
Jan 4
Last Quarter
Jan 11
New

Hourly Weather History & Observations

Time (EST) Temp. Windchill Dew Point Humidity Pressure Visibility Wind Dir Wind Speed Gust Speed Precip Events Conditions
12:53 AM 26.1 °F - 24.1 °F 92% 30.43 in 6.0 mi Calm Calm - N/A   Overcast
1:53 AM 27.0 °F - 25.0 °F 92% 30.44 in 7.0 mi Calm Calm - N/A   Overcast
2:53 AM 25.0 °F - 23.0 °F 92% 30.46 in 2.5 mi Calm Calm - N/A   Overcast
3:06 AM 24.8 °F - 23.0 °F 93% 30.43 in 3.0 mi Calm Calm - N/A   Overcast
3:42 AM 23.0 °F - 21.2 °F 93% 30.43 in 1.8 mi Calm Calm - N/A   Partly Cloudy
3:47 AM 21.2 °F - 19.4 °F 93% 30.43 in 0.8 mi Calm Calm - N/A   Clear
3:53 AM 21.9 °F - 19.9 °F 92% 30.45 in 0.5 mi Calm Calm - N/A Fog Light Freezing Fog
4:04 AM 21.2 °F - 19.4 °F 93% 30.42 in 1.5 mi Calm Calm - N/A   Partly Cloudy
4:06 AM 21.2 °F - 19.4 °F 93% 30.42 in 3.0 mi Calm Calm - N/A   Partly Cloudy
4:16 AM 21.2 °F - 19.4 °F 93% 30.43 in 1.8 mi Calm Calm - N/A   Scattered Clouds
4:21 AM 21.2 °F - 19.4 °F 93% 30.43 in 0.8 mi Calm Calm - N/A   Mist
4:33 AM 19.4 °F - 17.6 °F 93% 30.43 in 0.2 mi Calm Calm - N/A Fog Light Freezing Fog
4:53 AM 19.9 °F - 18.0 °F 92% 30.45 in 0.2 mi Calm Calm - N/A Fog Light Freezing Fog
5:29 AM 19.4 °F - 17.6 °F 93% 30.44 in 0.5 mi Calm Calm - N/A Fog Light Freezing Fog
5:43 AM 19.4 °F - 17.6 °F 93% 30.45 in 1.2 mi Calm Calm - N/A   Scattered Clouds
5:45 AM 19.4 °F - 17.6 °F 93% 30.45 in 2.0 mi Calm Calm - N/A   Scattered Clouds
5:53 AM 19.9 °F - 18.0 °F 92% 30.47 in 3.0 mi Calm Calm - N/A   Partly Cloudy
6:53 AM 21.9 °F - 19.0 °F 89% 30.47 in 6.0 mi Calm Calm - N/A   Clear
7:53 AM 21.0 °F - 19.0 °F 92% 30.46 in 6.0 mi Calm Calm - N/A   Clear
8:53 AM 26.1 °F - 24.1 °F 92% 30.45 in 5.0 mi Calm Calm - N/A   Mostly Cloudy
9:53 AM 28.9 °F 25.2 °F 27.0 °F 92% 30.46 in 8.0 mi SSW 3.5 mph - N/A   Mostly Cloudy
10:53 AM 33.1 °F 28.7 °F 28.0 °F 82% 30.43 in 10.0 mi South 4.6 mph - N/A   Partly Cloudy
11:53 AM 37.0 °F 33.3 °F 28.9 °F 73% 30.40 in 10.0 mi SSW 4.6 mph - N/A   Partly Cloudy
12:53 PM 39.9 °F 34.5 °F 28.0 °F 63% 30.36 in 10.0 mi SW 8.1 mph - N/A   Scattered Clouds
1:53 PM 39.9 °F 32.9 °F 28.9 °F 65% 30.34 in 10.0 mi SSW 11.5 mph - N/A   Clear
2:53 PM 41.0 °F 34.7 °F 28.9 °F 62% 30.33 in 10.0 mi South 10.4 mph - N/A   Partly Cloudy
3:53 PM 41.0 °F 35.8 °F 30.9 °F 67% 30.33 in 10.0 mi SSW 8.1 mph - N/A   Clear
4:53 PM 36.0 °F 30.3 °F 30.0 °F 79% 30.31 in 10.0 mi South 6.9 mph - N/A   Clear
7:53 PM 33.8 °F 27.7 °F 28.4 °F 81% 30.24 in 10.0 mi South 6.9 mph - N/A   Clear
8:53 PM 37.0 °F 29.8 °F 28.0 °F 70% 30.24 in 10.0 mi SSW 10.4 mph 19.6 mph N/A   Overcast
9:53 PM 37.0 °F 29.8 °F 27.0 °F 67% 30.23 in 10.0 mi SW 10.4 mph - N/A   Clear
10:53 PM 36.0 °F 29.6 °F 27.0 °F 70% 30.21 in 10.0 mi SSW 8.1 mph - N/A   Clear
11:53 PM 37.0 °F 30.4 °F 26.1 °F 65% 30.19 in 10.0 mi SSW 9.2 mph - N/A   Clear